THORAD DELTA 1 DEB, 9795

Orbit data source: Space-Track

THORAD DELTA 1 DEB, 9795 is space debris in SSO originally from a launch on Fri, 15 Nov 1974 UTC launched from the Air Force Western Test Range (AFWTR). Debris objects in space refer to the collection of defunct objects orbiting the Earth. Examples of debris include non-operational satellites, rocket bodies, and fragments generated from explosions, collisions, or faulty payload assembly.

Loading next visibility...
Identifier
9795, 1974-089EA
Orbit
SSO
Country
Flag of USUS
Related business
Manufacturer
Unknown
Mission
Spacecraft
Bus & Motor
Unknown
Mass
Unknown
Launch date (UTC)
1974-11-15 (51 years ago)
Launch vehicle
Unknown
Launch site
Air Force Western Test Range (AFWTR)
Object type
Payload
Rocket body
Debris
Shape & HBR
Unknown shape, 0.1 m
Radar Cross Section
Small (<0.1 m²)

Expand to show TLE details & history
Last TLE update: 3 days ago

TLE from 3 days ago
0 THORAD DELTA 1 DEB
1 09795U 74089EA  25284.50719066  .00000281  00000-0  15228-2 0  9994
2 09795 102.0001 253.6645 0299835 358.5585 119.8291 12.63351828341189
Epoch: 2025-10-11T12:10Z
TLE epoch observation values (Epoch: 2025-10-11T12:10:21.273Z)
Latitude
56.77952°
Longitude
-110.41766°
Altitude
1,539.749 km
Speed
7.046 km/s
True Right ascension
06h 10m 02s
True Declination
56° 38' 14"
Sunlit
Object was in daylight at epoch
Visualization orbit readout
Latitude
Unknown
Longitude
Unknown
Altitude
Unknown
Speed
Unknown
Apparent Right ascension
Unknown
Apparent Declination
Unknown
Sunlit
N/A
Visualization observer readout
Local Sidereal Time
20:11:12
Azimuth
Unknown
Elevation
Unknown
Doppler factor
Unknown
Orbital elements
Apogee altitude
1,640.097 km
Perigee altitude
1,173.265 km
Semi-major axis
7,784.818 km
Eccentricity
0.02998
Inclination
102.0001°
RAAN
253.6645°
Arg. of periapsis
358.5585°
True anomaly
122.75389°
Mean anomaly
119.8291°
Eccentric anomaly
121.29704°
Mean motion
3.15988 °/min
Orbital period
113.93 mins
BSTAR
0.0015228
Loading maneuver chart data...
Computing Atmospheric mass density...

Documentation

Showing up to 5 results
|